This demonstration page uses our WeatherBlox Daily Observations layout. Learn more.

Left ArrowRight Arrow

Hourly Observations for September 28, 2021

Temp ( °F °C ) Dew Point ( °F °C ) Humidity (%) Winds ( mph kmh ) Pressure ( in mb ) Visibility ( mi km ) Precip ( " mm )
12:51 am 00:51 Cloudy 65 18.3 63 17.2 93 93 SSE 3 6 29.85 1011 10 16 0.01 0.25
1:51 am 01:51 Cloudy 65 18.3 63 17.2 93 93 S 5 7 29.85 1011 10 16 N/A
2:51 am 02:51 Cloudy with Light Rain 63 17.2 63 17.2 100 100 W 3 6 29.85 1011 10 16 0.05 1.27
3:51 am 03:51 Cloudy with Light Rain 64 17.8 63 17.2 96 96 N N/A 29.84 1011 8 13 0.01 0.25
4:51 am 04:51 Cloudy 64 17.8 63 17.2 96 96 N N/A 29.85 1011 10 16 0.00 0.00
5:51 am 05:51 Mostly Cloudy 63 17.2 63 17.2 100 100 E 5 7 29.86 1011 10 16 N/A
6:51 am 06:51 Cloudy 63 17.2 62 16.7 97 97 E 3 6 29.87 1011 10 16 N/A
7:33 am 07:33 Cloudy 64 17.8 63 17.2 96 96 S 6 9 29.88 1012 10 16 N/A
7:51 am 07:51 Cloudy 64 17.8 63 17.2 96 96 S 3 6 29.88 1012 10 16 N/A
8:51 am 08:51 Mostly Cloudy 67 19.4 63 17.2 87 87 E 5 7 29.89 1012 10 16 0.00 0.00
9:35 am 09:35 Mostly Cloudy 67 19.4 63 17.2 87 87 SSE 6 9 29.88 1012 10 16 N/A
9:51 am 09:51 Cloudy 67 19.4 63 17.2 87 87 SSE 9 15 29.90 1013 10 16 N/A
10:40 am 10:40 Mostly Cloudy 70 21.1 64 17.8 82 82 S 8 13 29.86 1011 10 16 N/A
10:51 am 10:51 Mostly Cloudy 70 21.1 63 17.2 79 79 SSE 8 13 29.88 1012 10 16 N/A
11:51 am 11:51 Mostly Cloudy 73 22.8 61 16.1 66 66 E 3 6 29.87 1012 10 16 N/A
12:51 pm 12:51 Cloudy 75 23.9 61 16.1 62 62 ENE 6 9 29.84 1010 10 16 N/A
1:29 pm 13:29 Cloudy with Nearby Thunderstorms 77 25 61 16.1 58 58 VRB 5 7 29.75 1008 10 16 N/A
1:44 pm 13:44 Cloudy 77 25 62 16.7 60 60 ENE 5 7 29.75 1008 10 16 N/A
1:51 pm 13:51 Cloudy with Nearby Thunderstorms 77 25 61 16.1 58 58 NE 5 7 29.81 1010 10 16 N/A
2:19 pm 14:19 Mostly Cloudy 78 25.6 61 16.1 56 56 E 9 15 29.74 1007 10 16 N/A
2:51 pm 14:51 Mostly Cloudy 76 24.4 62 16.7 62 62 E 13 20 29.80 1009 10 16 N/A
3:51 pm 15:51 Partly Cloudy 77 25 61 16.1 58 58 E 8 13 29.78 1009 10 16 N/A
4:51 pm 16:51 Sunny 77 25 61 16.1 58 58 E 8 13 29.78 1008 10 16 N/A
5:51 pm 17:51 Sunny 73 22.8 62 16.7 69 69 E 6 9 29.78 1008 10 16 N/A
6:51 pm 18:51 Clear 70 21.1 63 17.2 79 79 E 6 9 29.78 1009 10 16 N/A
7:51 pm 19:51 Clear 68 20 63 17.2 84 84 E 6 9 29.80 1009 10 16 N/A
8:51 pm 20:51 Clear 67 19.4 62 16.7 84 84 E 6 9 29.80 1009 10 16 N/A
9:51 pm 21:51 Clear 66 18.9 62 16.7 87 87 ESE 8 13 29.80 1009 10 16 N/A
10:51 pm 22:51 Clear 67 19.4 61 16.1 81 81 ESE 8 13 29.81 1010 10 16 N/A
11:51 pm 23:51 Clear 63 17.2 61 16.1 93 93 N N/A 29.81 1010 10 16 N/A

Powered by AerisWeather